Flag for Germany Weather past 2 weeks in Koblenz, Rhineland-Palatinate, Germany

Now
55 °F

Cool.


Feels Like: 55 °F
Forecast: 61 / 94 °F
Wind: 5 mph from Southeast

Location: Buechel

Current Time: Aug 5, 2015 at 7:00:01 AM

Latest Report: Aug 5, 2015 at 5:20 AM


Visibility: N/A

Pressure: 30.12 "Hg

Humidity: 88%

Dew point: 52 °F

Location of KoblenzLocation

Historic Weather in Koblenz — Graph

°F

Koblenz temperature yesterday

Maximum temperature yesterday: 77 °F (at 12:20 AM)
Minimum temperature yesterday: 57 °F (at 11:20 PM)
Average temperature yesterday: 67 °F

Past Weeks' High & Low Weather Summary

 TemperatureHumidityPressure
High86 °F (Aug 3, 5:20 PM)100% (Jul 21, 4:20 AM)30.15 "Hg (Jul 21, 4:20 AM)
Low45 °F (Jul 30, 3:20 AM)25% (Aug 3, 5:20 PM)29.62 "Hg (Jul 27, 4:20 AM)
Average62 °F67%29.94 "Hg
* Reported Jul 21 4:20 AM — Aug 5 4:20 AM, Koblenz, Weather by CustomWeather, © 2015

Note: Actual official high and low records may vary slightly from our data, if they occured in-between our weather recording intervals... More about our weather records

Advertising

Koblenz weather history for previous 24 hours

 ConditionsComfort  
Time TempWeatherWind HumidityBarometerVisibility
4:20 AM
Wed, Aug 5
55 °FCool.2 mph94%30.12 "Hg4 mi
3:20 AM55 °FCool.2 mph94%30.12 "Hg4 mi
2:20 AM55 °FCool.2 mph94%30.12 "Hg6 mi
1:20 AM57 °FCool.3 mph88%30.12 "Hg6 mi
12:20 AM57 °FCool.3 mph88%30.12 "Hg6 mi
11:20 PM
Tue, Aug 4
57 °FCool.3 mph88%30.12 "Hg5 mi
10:20 PM59 °FCool.3 mph82%30.12 "HgN/A
9:20 PM59 °FCool.5 mph82%30.09 "HgN/A
8:20 PM63 °FMild.5 mph73%30.07 "HgN/A
7:20 PM64 °FMild.9 mph68%30.07 "HgN/A
6:20 PM63 °FMild.9 mph73%30.07 "HgN/A
5:20 PM63 °FMild.10 mph88%30.04 "HgN/A
4:20 PM64 °FMild.13 mph88%30.01 "Hg6 mi
3:20 PM64 °FMild.8 mph94%30.01 "Hg2 mi
2:20 PM63 °FMild.14 mph100%30.01 "Hg3 mi
1:20 PM63 °FMild.12 mph100%29.98 "Hg4 mi
12:20 PM61 °FCool.10 mph100%29.98 "Hg3 mi
11:20 AM63 °FMild.9 mph94%29.98 "Hg3 mi
10:20 AM70 °FMild.13 mph60%29.98 "Hg6 mi
9:20 AM72 °FMild.9 mph53%29.92 "HgN/A
8:20 AM72 °FMild.5 mph53%29.92 "HgN/A
7:20 AM72 °FMild.7 mph53%29.92 "HgN/A
Weather by CustomWeather, © 2015

See weather overviewHow to use our weather pages